Location: Huesca
(42.1318°N, 0.4078°W)
Time: 08:51:39
(UTC+01:00)

SR - Visible Passes

Search period start: 09 November 2024 00:00
Search period end: 19 November 2024 00:00
Orbit: 575 x 857 km, 66.7° (Epoch: 08 November)

Date Brightness Start Highest point End Pass type
(mag) Time Alt. Az. Time Alt. Az. Time Alt. Az.
13 Nov ? 06:27:41 10° NNE 06:29:37 12° NE 06:31:35 10° ENE visible
14 Nov ? 07:14:22 10° NNW 07:18:57 30° NE 07:23:48 10° ESE visible
15 Nov ? 06:21:50 10° N 06:25:13 17° NE 06:28:44 10° E visible
16 Nov ? 07:09:16 10° NNW 07:14:18 45° NE 07:19:40 10° SE visible
17 Nov ? 06:16:27 10° N 06:20:42 24° NE 06:25:10 10° E visible
18 Nov ? 05:24:08 10° N 05:26:51 14° NE 05:29:39 10° ENE visible
18 Nov ? 07:04:15 10° NNW 07:09:33 69° ENE 07:15:11 10° SE visible
